THEMIS A

Last updated on Mon Nov 03 2025 00:02:46 GMT+0000 (Coordinated Universal Time)

1 30580U 07004A 25305.46701083 .00000080 00000+0 -17384-2 0 9994 2 30580 4.3959 146.7969 8446534 136.2061 335.3190 0.87835348 39274
UTC large
Height (km)
Speed (km/s)
/
Latitude / Longitude
Inclination (degrees)
Orbital Period (minutes)
Azimuth
Elevation
Range (km)
Doppler Factor

Next 0 passes for location: London (51.5072 / 0.1276)

Sorry there are no passes over London.